RYR82YZ LEPA-LOWW

Flight info

Callsign RYR82YZ
Flight time 2h 7m
Altitude 36000
Route ISTER DCT NIVDA DCT OMEDA DCT RAPUR DCT TORTU DCT ERTEV DCT ARALD DCT ABTAN ABTAN2W
Aircraft A320/M-SDE3FGHIRWY/LB1

Departure

Time 2026-04-26 07:34
Airport Palma de Mallorca Airport (LEPA)

Arrival

Time 2026-04-26 09:41
Airport Vienna International Airport (LOWW)
Time Latitude Longitude Altitude Speed Heading
2026-04-26 07:09 39.55047 2.73541 30 ft 0 kts 163°
2026-04-26 07:25 39.55056 2.73537 30 ft 3 kts 160°
2026-04-26 07:25 39.55074 2.73527 30 ft 3 kts 140°
2026-04-26 07:25 39.55086 2.73509 30 ft 3 kts 98°
2026-04-26 07:25 39.55085 2.73492 30 ft 1 kts 58°
2026-04-26 07:26 39.55083 2.73487 30 ft 0 kts 58°
2026-04-26 07:29 39.55097 2.73517 30 ft 10 kts 58°
2026-04-26 07:29 39.55138 2.73603 30 ft 12 kts 58°
2026-04-26 07:29 39.55207 2.73614 30 ft 13 kts 332°
2026-04-26 07:29 39.55294 2.73545 30 ft 17 kts 329°
2026-04-26 07:30 39.55396 2.73466 30 ft 15 kts 329°
2026-04-26 07:30 39.55482 2.73523 30 ft 18 kts 56°
2026-04-26 07:30 39.55549 2.73559 30 ft 11 kts 332°
2026-04-26 07:30 39.55633 2.73506 30 ft 16 kts
2026-04-26 07:31 39.55707 2.73610 30 ft 18 kts 58°
2026-04-26 07:31 39.55777 2.73756 30 ft 20 kts 58°
2026-04-26 07:31 39.55854 2.73915 30 ft 22 kts 57°
2026-04-26 07:31 39.55935 2.74088 30 ft 23 kts 59°
2026-04-26 07:32 39.56013 2.74227 30 ft 18 kts 38°
2026-04-26 07:32 39.56122 2.74326 30 ft 20 kts 34°
2026-04-26 07:32 39.56205 2.74367 30 ft 11 kts 346°
2026-04-26 07:32 39.56229 2.74284 30 ft 12 kts 261°
2026-04-26 07:33 39.56186 2.74177 30 ft 19 kts 239°
2026-04-26 07:33 39.56004 2.73789 30 ft 84 kts 238°
2026-04-26 07:33 39.55598 2.72935 30 ft 136 kts 238°
2026-04-26 07:33 39.55033 2.71738 96 ft 169 kts 239°
2026-04-26 07:34 39.54431 2.70461 739 ft 164 kts 239°
2026-04-26 07:34 39.53862 2.69205 1380 ft 161 kts 239°
2026-04-26 07:34 39.53264 2.67928 1811 ft 170 kts 237°
2026-04-26 07:34 39.52617 2.66600 2202 ft 180 kts 237°
2026-04-26 07:35 39.51943 2.65175 2543 ft 193 kts 237°
2026-04-26 07:35 39.51211 2.63645 2892 ft 205 kts 232°
2026-04-26 07:35 39.50209 2.62302 3357 ft 210 kts 213°
2026-04-26 07:35 39.48945 2.61294 3805 ft 218 kts 207°
2026-04-26 07:36 39.47594 2.60343 4284 ft 225 kts 202°
2026-04-26 07:36 39.46043 2.60042 4582 ft 236 kts 168°
2026-04-26 07:36 39.44346 2.60446 4884 ft 260 kts 167°
2026-04-26 07:36 39.42525 2.60871 5491 ft 270 kts 167°
2026-04-26 07:37 39.40656 2.61281 6278 ft 275 kts 168°
2026-04-26 07:37 39.38757 2.61697 7043 ft 278 kts 165°
2026-04-26 07:37 39.36934 2.62531 7790 ft 280 kts 151°
2026-04-26 07:37 39.35324 2.63940 8531 ft 282 kts 136°
2026-04-26 07:38 39.33902 2.65693 9280 ft 285 kts 135°
2026-04-26 07:38 39.32459 2.67479 10036 ft 288 kts 135°
2026-04-26 07:38 39.30991 2.69294 10509 ft 301 kts 135°
2026-04-26 07:38 39.29423 2.71236 10640 ft 324 kts 135°
2026-04-26 07:39 39.27922 2.73476 11001 ft 335 kts 120°
2026-04-26 07:39 39.27083 2.76289 11577 ft 339 kts 99°
2026-04-26 07:39 39.27106 2.79324 12202 ft 342 kts 77°
2026-04-26 07:39 39.28033 2.82158 12831 ft 346 kts 57°
2026-04-26 07:40 39.29432 2.84705 13478 ft 349 kts 54°
2026-04-26 07:40 39.30861 2.87254 14102 ft 353 kts 54°
2026-04-26 07:40 39.32307 2.89832 14661 ft 355 kts 54°
2026-04-26 07:40 39.33760 2.92434 15229 ft 358 kts 55°
2026-04-26 07:41 39.35214 2.95054 15786 ft 361 kts 55°
2026-04-26 07:41 39.36680 2.97705 16341 ft 363 kts 55°
2026-04-26 07:41 39.38150 3.00371 16889 ft 366 kts 56°
2026-04-26 07:41 39.39630 3.03061 17455 ft 369 kts 56°
2026-04-26 07:42 39.41122 3.05774 18008 ft 372 kts 56°
2026-04-26 07:42 39.42626 3.08507 18558 ft 375 kts 56°
2026-04-26 07:42 39.44148 3.11269 19058 ft 378 kts 56°
2026-04-26 07:42 39.45682 3.14050 19556 ft 381 kts 55°
2026-04-26 07:43 39.47228 3.16856 20059 ft 385 kts 55°
2026-04-26 07:43 39.48787 3.19691 20565 ft 388 kts 55°
2026-04-26 07:43 39.50355 3.22548 21057 ft 391 kts 55°
2026-04-26 07:43 39.51938 3.25436 21547 ft 395 kts 55°
2026-04-26 07:44 39.53531 3.28346 22024 ft 398 kts 55°
2026-04-26 07:44 39.55138 3.31288 22487 ft 401 kts 55°
2026-04-26 07:44 39.56757 3.34252 22950 ft 404 kts 55°
2026-04-26 07:44 39.58388 3.37238 23395 ft 407 kts 55°
2026-04-26 07:45 39.60033 3.40247 23831 ft 410 kts 55°
2026-04-26 07:45 39.61687 3.43277 24202 ft 413 kts 55°
2026-04-26 07:45 39.63350 3.46328 24578 ft 415 kts 55°
2026-04-26 07:45 39.65020 3.49396 24953 ft 417 kts 55°
2026-04-26 07:46 39.66694 3.52478 25321 ft 419 kts 55°
2026-04-26 07:46 39.68377 3.55577 25684 ft 421 kts 55°
2026-04-26 07:46 39.70069 3.58694 26041 ft 423 kts 55°
2026-04-26 07:46 39.71766 3.61820 26396 ft 425 kts 55°
2026-04-26 07:47 39.73471 3.64966 26744 ft 427 kts 55°
2026-04-26 07:47 39.75179 3.68126 27094 ft 428 kts 55°
2026-04-26 07:47 39.76894 3.71302 27439 ft 430 kts 55°
2026-04-26 07:47 39.78615 3.74491 27791 ft 432 kts 55°
2026-04-26 07:48 39.80340 3.77693 28129 ft 433 kts 55°
2026-04-26 07:48 39.82070 3.80906 28473 ft 435 kts 55°
2026-04-26 07:48 39.83814 3.84147 28814 ft 437 kts 55°
2026-04-26 07:48 39.85561 3.87393 29140 ft 439 kts 55°
2026-04-26 07:49 39.87309 3.90644 29483 ft 440 kts 55°
2026-04-26 07:49 39.89060 3.93906 29952 ft 438 kts 55°
2026-04-26 07:49 39.90802 3.97157 30395 ft 437 kts 55°
2026-04-26 07:50 39.94270 4.03645 31160 ft 435 kts 55°
2026-04-26 07:50 39.96001 4.06882 31536 ft 435 kts 55°
2026-04-26 07:50 39.97727 4.10109 31929 ft 434 kts 55°
2026-04-26 07:50 39.99455 4.13339 32317 ft 433 kts 55°
2026-04-26 07:51 40.01201 4.16605 32714 ft 433 kts 55°
2026-04-26 07:51 40.02919 4.19825 33108 ft 432 kts 55°
2026-04-26 07:51 40.04633 4.23044 33478 ft 432 kts 55°
2026-04-26 07:51 40.06323 4.26228 33845 ft 431 kts 55°
2026-04-26 07:52 40.08033 4.29458 34130 ft 432 kts 55°
2026-04-26 07:52 40.09740 4.32684 34174 ft 432 kts 55°
2026-04-26 07:52 40.13154 4.39151 34173 ft 432 kts 55°
2026-04-26 07:53 40.16015 4.44568 34178 ft 432 kts 55°
2026-04-26 07:53 40.19429 4.51032 34174 ft 432 kts 55°
2026-04-26 07:54 40.22827 4.57497 34174 ft 431 kts 55°
2026-04-26 07:54 40.26227 4.63965 34174 ft 431 kts 55°
2026-04-26 07:55 40.29620 4.70430 34173 ft 431 kts 55°
2026-04-26 07:55 40.33003 4.76908 34177 ft 430 kts 55°
2026-04-26 07:56 40.36380 4.83386 34176 ft 430 kts 55°
2026-04-26 07:56 40.39759 4.89860 34174 ft 430 kts 55°
2026-04-26 07:57 40.43128 4.96343 34177 ft 430 kts 55°
2026-04-26 07:57 40.46492 5.02839 34178 ft 430 kts 55°
2026-04-26 07:58 40.49853 5.09344 34174 ft 430 kts 55°
2026-04-26 07:58 40.53217 5.15850 34174 ft 430 kts 55°
2026-04-26 07:59 40.56597 5.22405 34172 ft 430 kts 55°
2026-04-26 07:59 40.59950 5.28924 34174 ft 430 kts 55°
2026-04-26 08:00 40.63295 5.35446 34172 ft 430 kts 55°
2026-04-26 08:00 40.66638 5.41967 34175 ft 430 kts 55°
2026-04-26 08:01 40.69974 5.48500 34173 ft 429 kts 55°
2026-04-26 08:01 40.73303 5.55031 34172 ft 429 kts 55°
2026-04-26 08:02 40.76630 5.61569 34167 ft 429 kts 55°
2026-04-26 08:02 40.79956 5.68121 34170 ft 429 kts 55°
2026-04-26 08:03 40.83283 5.74675 34174 ft 430 kts 55°
2026-04-26 08:03 40.86601 5.81237 34172 ft 430 kts 55°
2026-04-26 08:04 40.89916 5.87808 34172 ft 429 kts 55°
2026-04-26 08:04 40.93228 5.94371 34168 ft 429 kts 55°
2026-04-26 08:05 40.97009 6.00406 34165 ft 427 kts 37°
2026-04-26 08:05 41.01695 6.05252 34172 ft 427 kts 37°
2026-04-26 08:06 41.06391 6.10084 34166 ft 427 kts 37°
2026-04-26 08:06 41.11084 6.14918 34170 ft 427 kts 37°
2026-04-26 08:07 41.15771 6.19765 34166 ft 427 kts 37°
2026-04-26 08:07 41.20450 6.24621 34163 ft 427 kts 37°
2026-04-26 08:08 41.25125 6.29481 34161 ft 427 kts 37°
2026-04-26 08:08 41.29797 6.34350 34163 ft 427 kts 37°
2026-04-26 08:09 41.34469 6.39213 34163 ft 427 kts 37°
2026-04-26 08:09 41.39130 6.44112 34163 ft 427 kts 38°
2026-04-26 08:10 41.43766 6.49062 34167 ft 427 kts 38°
2026-04-26 08:10 41.48400 6.54025 34159 ft 427 kts 38°
2026-04-26 08:11 41.53027 6.58986 34168 ft 427 kts 38°
2026-04-26 08:11 41.57660 6.63963 34158 ft 427 kts 38°
2026-04-26 08:12 41.62327 6.68970 34166 ft 428 kts 38°
2026-04-26 08:12 41.66962 6.73956 34167 ft 428 kts 38°
2026-04-26 08:13 41.71559 6.78902 34162 ft 428 kts 38°
2026-04-26 08:13 41.76195 6.83900 34158 ft 428 kts 38°
2026-04-26 08:14 41.80822 6.88909 34166 ft 428 kts 38°
2026-04-26 08:14 41.85449 6.93925 34154 ft 428 kts 38°
2026-04-26 08:15 41.90080 6.98954 34162 ft 428 kts 38°
2026-04-26 08:15 41.94713 7.03990 34151 ft 429 kts 38°
2026-04-26 08:16 41.99349 7.09038 34159 ft 429 kts 38°
2026-04-26 08:16 42.03978 7.14103 34156 ft 429 kts 38°
2026-04-26 08:17 42.08615 7.19178 34162 ft 430 kts 38°
2026-04-26 08:17 42.13251 7.24262 34160 ft 430 kts 38°
2026-04-26 08:18 42.17916 7.29396 34159 ft 430 kts 38°
2026-04-26 08:18 42.22558 7.34505 34158 ft 431 kts 38°
2026-04-26 08:19 42.27198 7.39618 34161 ft 431 kts 38°
2026-04-26 08:19 42.31842 7.44752 34161 ft 431 kts 38°
2026-04-26 08:20 42.36484 7.49891 34162 ft 431 kts 38°
2026-04-26 08:20 42.41127 7.55052 34164 ft 432 kts 38°
2026-04-26 08:21 42.45770 7.60210 34165 ft 432 kts 38°
2026-04-26 08:21 42.50412 7.65376 34163 ft 432 kts 38°
2026-04-26 08:22 42.55053 7.70560 34168 ft 432 kts 38°
2026-04-26 08:22 42.59695 7.75745 34169 ft 433 kts 38°
2026-04-26 08:23 42.64339 7.80948 34163 ft 433 kts 38°
2026-04-26 08:23 42.68980 7.86167 34167 ft 433 kts 38°
2026-04-26 08:24 42.73624 7.91385 34165 ft 433 kts 38°
2026-04-26 08:24 42.78270 7.96620 34165 ft 433 kts 38°
2026-04-26 08:25 42.82890 8.01838 34166 ft 433 kts 38°
2026-04-26 08:25 42.86773 8.06236 34170 ft 433 kts 38°
2026-04-26 08:26 42.91421 8.11499 34167 ft 434 kts 38°
2026-04-26 08:26 42.96062 8.16768 34166 ft 434 kts 38°
2026-04-26 08:27 43.00710 8.22055 34173 ft 435 kts 38°
2026-04-26 08:27 43.05359 8.27367 34165 ft 436 kts 39°
2026-04-26 08:28 43.10006 8.32694 34168 ft 436 kts 39°
2026-04-26 08:28 43.14664 8.38025 34166 ft 436 kts 39°
2026-04-26 08:29 43.19324 8.43363 34173 ft 437 kts 39°
2026-04-26 08:29 43.23980 8.48710 34167 ft 437 kts 39°
2026-04-26 08:30 43.28639 8.54085 34170 ft 437 kts 39°
2026-04-26 08:30 43.33297 8.59468 34165 ft 438 kts 39°
2026-04-26 08:31 43.37957 8.64857 34174 ft 438 kts 39°
2026-04-26 08:31 43.42616 8.70265 34167 ft 439 kts 39°
2026-04-26 08:32 43.47279 8.75690 34171 ft 439 kts 39°
2026-04-26 08:32 43.51931 8.81143 34170 ft 439 kts 40°
2026-04-26 08:33 43.56499 8.86730 34176 ft 439 kts 41°
2026-04-26 08:33 43.61031 8.92373 34172 ft 439 kts 41°
2026-04-26 08:34 43.65568 8.98037 34174 ft 440 kts 41°
2026-04-26 08:34 43.70049 9.03873 34173 ft 440 kts 43°
2026-04-26 08:35 43.74473 9.09741 34173 ft 441 kts 43°
2026-04-26 08:35 43.78907 9.15608 34177 ft 441 kts 42°
2026-04-26 08:36 43.83348 9.21462 34175 ft 441 kts 42°
2026-04-26 08:36 43.87795 9.27322 34179 ft 441 kts 42°
2026-04-26 08:37 43.92243 9.33199 34177 ft 442 kts 42°
2026-04-26 08:37 43.96691 9.39091 34178 ft 442 kts 42°
2026-04-26 08:38 44.01135 9.44997 34177 ft 443 kts 42°
2026-04-26 08:38 44.05586 9.50935 34172 ft 443 kts 42°
2026-04-26 08:39 44.10036 9.56886 34169 ft 444 kts 42°
2026-04-26 08:39 44.14494 9.62837 34169 ft 444 kts 42°
2026-04-26 08:40 44.18952 9.68815 34168 ft 445 kts 42°
2026-04-26 08:40 44.23407 9.74816 34167 ft 445 kts 43°
2026-04-26 08:41 44.27865 9.80817 34161 ft 445 kts 42°
2026-04-26 08:41 44.32319 9.86827 34163 ft 445 kts 43°
2026-04-26 08:42 44.36774 9.92847 34157 ft 446 kts 43°
2026-04-26 08:42 44.41223 9.98876 34157 ft 446 kts 43°
2026-04-26 08:43 44.45672 10.04923 34154 ft 446 kts 43°
2026-04-26 08:43 44.50114 10.10979 34153 ft 446 kts 43°
2026-04-26 08:44 44.54551 10.17045 34143 ft 445 kts 43°
2026-04-26 08:44 44.58989 10.23111 34137 ft 445 kts 43°
2026-04-26 08:45 44.63449 10.29227 34129 ft 445 kts 43°
2026-04-26 08:45 44.67868 10.35303 34125 ft 445 kts 43°
2026-04-26 08:46 44.72284 10.41388 34119 ft 444 kts 43°
2026-04-26 08:46 44.76693 10.47469 34123 ft 444 kts 43°
2026-04-26 08:47 44.81100 10.53570 34127 ft 444 kts 43°
2026-04-26 08:47 44.85496 10.59669 34134 ft 444 kts 43°
2026-04-26 08:48 44.89897 10.65777 34141 ft 444 kts 43°
2026-04-26 08:48 44.94295 10.71891 34145 ft 443 kts 43°
2026-04-26 08:49 44.98563 10.77859 34135 ft 443 kts 43°
2026-04-26 08:49 45.02944 10.83980 34129 ft 443 kts 43°
2026-04-26 08:50 45.07345 10.90080 34115 ft 443 kts 43°
2026-04-26 08:50 45.11666 10.96216 34112 ft 442 kts 43°
2026-04-26 08:51 45.18220 11.05485 34115 ft 442 kts 43°
2026-04-26 08:52 45.22580 11.11637 34111 ft 442 kts 43°
2026-04-26 08:52 45.26931 11.17798 34116 ft 441 kts 43°
2026-04-26 08:53 45.31268 11.23960 34120 ft 441 kts 43°
2026-04-26 08:53 45.35605 11.30126 34122 ft 441 kts 43°
2026-04-26 08:54 45.39941 11.36308 34126 ft 441 kts 43°
2026-04-26 08:54 45.44257 11.42500 34123 ft 440 kts 43°
2026-04-26 08:55 45.48581 11.48694 34118 ft 440 kts 43°
2026-04-26 08:55 45.52893 11.54883 34115 ft 440 kts 43°
2026-04-26 08:56 45.57202 11.61088 34118 ft 440 kts 43°
2026-04-26 08:56 45.61506 11.67296 34119 ft 440 kts 43°
2026-04-26 08:57 45.65774 11.73477 34117 ft 440 kts 43°
2026-04-26 08:57 45.70067 11.79705 34118 ft 440 kts 43°
2026-04-26 08:58 45.73663 11.84923 34119 ft 439 kts 43°
2026-04-26 08:58 45.77951 11.91165 34114 ft 439 kts 43°
2026-04-26 08:59 45.82227 11.97411 34114 ft 439 kts 43°
2026-04-26 08:59 45.86504 12.03677 34116 ft 439 kts 43°
2026-04-26 09:00 45.90772 12.09942 34113 ft 439 kts 43°
2026-04-26 09:00 45.95037 12.16213 34115 ft 439 kts 43°
2026-04-26 09:01 45.99302 12.22485 34114 ft 438 kts 43°
2026-04-26 09:01 46.03562 12.28767 34116 ft 438 kts 43°
2026-04-26 09:02 46.07811 12.35064 34112 ft 438 kts 43°
2026-04-26 09:02 46.12058 12.41371 34115 ft 438 kts 43°
2026-04-26 09:03 46.16307 12.47684 34114 ft 438 kts 43°
2026-04-26 09:03 46.20546 12.54008 34115 ft 439 kts 43°
2026-04-26 09:04 46.24809 12.60398 34115 ft 439 kts 44°
2026-04-26 09:04 46.29024 12.66712 34105 ft 439 kts 44°
2026-04-26 09:05 46.33295 12.73107 34118 ft 439 kts 44°
2026-04-26 09:05 46.37533 12.79492 34114 ft 440 kts 44°
2026-04-26 09:06 46.41771 12.85882 34122 ft 440 kts 44°
2026-04-26 09:06 46.46016 12.92293 34115 ft 441 kts 44°
2026-04-26 09:07 46.50262 12.98723 34122 ft 441 kts 44°
2026-04-26 09:07 46.54500 13.05154 34126 ft 441 kts 44°
2026-04-26 09:08 46.58732 13.11612 34129 ft 441 kts 44°
2026-04-26 09:08 46.62970 13.18085 34140 ft 442 kts 44°
2026-04-26 09:09 46.67177 13.24599 34143 ft 443 kts 48°
2026-04-26 09:09 46.70461 13.32199 34142 ft 446 kts 61°
2026-04-26 09:10 46.73302 13.40241 34150 ft 446 kts 61°
2026-04-26 09:10 46.76153 13.48282 34154 ft 447 kts 61°
2026-04-26 09:11 46.78998 13.56348 34155 ft 447 kts 63°
2026-04-26 09:11 46.81223 13.64831 34155 ft 448 kts 69°
2026-04-26 09:12 46.83338 13.73454 34160 ft 448 kts 69°
2026-04-26 09:12 46.85423 13.82033 34162 ft 448 kts 69°
2026-04-26 09:13 46.87510 13.90612 34172 ft 448 kts 69°
2026-04-26 09:13 46.89594 13.99192 34174 ft 448 kts 69°
2026-04-26 09:13 46.90634 14.03487 34049 ft 449 kts 69°
2026-04-26 09:14 46.91677 14.07796 33488 ft 447 kts 69°
2026-04-26 09:14 46.92711 14.12071 32947 ft 444 kts 69°
2026-04-26 09:14 46.93733 14.16315 32438 ft 441 kts 69°
2026-04-26 09:14 46.94749 14.20539 31911 ft 438 kts 69°
2026-04-26 09:15 46.95755 14.24730 31405 ft 435 kts 69°
2026-04-26 09:15 46.96743 14.28848 30906 ft 433 kts 69°
2026-04-26 09:15 46.97735 14.32997 30431 ft 430 kts 69°
2026-04-26 09:15 46.98717 14.37116 29892 ft 427 kts 68°
2026-04-26 09:16 46.99690 14.41213 29319 ft 424 kts 69°
2026-04-26 09:16 47.00655 14.45287 28774 ft 421 kts 68°
2026-04-26 09:16 47.01611 14.49327 28236 ft 419 kts 68°
2026-04-26 09:16 47.02560 14.53341 27707 ft 416 kts 68°
2026-04-26 09:17 47.03504 14.57341 27182 ft 413 kts 68°
2026-04-26 09:17 47.04441 14.61307 26678 ft 410 kts 68°
2026-04-26 09:17 47.05371 14.65247 26175 ft 408 kts 68°
2026-04-26 09:17 47.06309 14.69224 25678 ft 406 kts 68°
2026-04-26 09:18 47.07234 14.73069 25203 ft 403 kts 64°
2026-04-26 09:18 47.08590 14.76622 24729 ft 397 kts 53°
2026-04-26 09:18 47.10130 14.79974 24259 ft 396 kts 52°
2026-04-26 09:18 47.11671 14.83319 23799 ft 395 kts 52°
2026-04-26 09:19 47.13210 14.86649 23261 ft 393 kts 52°
2026-04-26 09:19 47.14743 14.89968 22717 ft 392 kts 52°
2026-04-26 09:19 47.16268 14.93273 22183 ft 390 kts 52°
2026-04-26 09:19 47.17792 14.96577 21661 ft 390 kts 52°
2026-04-26 09:20 47.19313 14.99880 21146 ft 390 kts 53°
2026-04-26 09:20 47.20830 15.03180 20639 ft 389 kts 53°
2026-04-26 09:20 47.22344 15.06479 20140 ft 388 kts 53°
2026-04-26 09:20 47.23851 15.09769 19647 ft 387 kts 53°
2026-04-26 09:21 47.25348 15.13051 19161 ft 385 kts 53°
2026-04-26 09:21 47.26834 15.16316 18695 ft 383 kts 53°
2026-04-26 09:21 47.28306 15.19553 18194 ft 379 kts 53°
2026-04-26 09:21 47.29766 15.22764 17656 ft 375 kts 53°
2026-04-26 09:22 47.31211 15.25935 17134 ft 371 kts 53°
2026-04-26 09:22 47.32665 15.29126 16613 ft 369 kts 52°
2026-04-26 09:22 47.34090 15.32255 16107 ft 366 kts 53°
2026-04-26 09:22 47.35503 15.35363 15605 ft 363 kts 52°
2026-04-26 09:23 47.36770 15.38163 15156 ft 360 kts 52°
2026-04-26 09:23 47.38154 15.41231 14674 ft 359 kts 53°
2026-04-26 09:23 47.39550 15.44329 14268 ft 355 kts 53°
2026-04-26 09:23 47.40908 15.47338 13910 ft 350 kts 52°
2026-04-26 09:24 47.42252 15.50308 13516 ft 346 kts 52°
2026-04-26 09:24 47.43586 15.53254 13122 ft 344 kts 52°
2026-04-26 09:24 47.44906 15.56177 12736 ft 341 kts 52°
2026-04-26 09:24 47.46215 15.59080 12357 ft 339 kts 51°
2026-04-26 09:25 47.47517 15.61972 11985 ft 336 kts 51°
2026-04-26 09:25 47.48806 15.64840 11605 ft 334 kts 51°
2026-04-26 09:25 47.50062 15.67645 11335 ft 332 kts 51°
2026-04-26 09:25 47.51347 15.70520 11074 ft 328 kts 51°
2026-04-26 09:26 47.52604 15.73332 10843 ft 328 kts 51°
2026-04-26 09:26 47.53866 15.76157 10600 ft 328 kts 50°
2026-04-26 09:26 47.55125 15.78979 10359 ft 329 kts 50°
2026-04-26 09:26 47.56380 15.81796 10120 ft 327 kts 50°
2026-04-26 09:27 47.57622 15.84586 9869 ft 322 kts 50°
2026-04-26 09:27 47.58837 15.87336 9595 ft 316 kts 50°
2026-04-26 09:27 47.60024 15.90038 9343 ft 311 kts 50°
2026-04-26 09:27 47.61190 15.92698 9186 ft 303 kts 50°
2026-04-26 09:28 47.62321 15.95284 9054 ft 295 kts 50°
2026-04-26 09:28 47.63421 15.97799 8922 ft 289 kts 50°
2026-04-26 09:28 47.64516 16.00291 8802 ft 288 kts 50°
2026-04-26 09:28 47.65610 16.02777 8659 ft 287 kts 50°
2026-04-26 09:29 47.66700 16.05252 8546 ft 287 kts 50°
2026-04-26 09:29 47.67791 16.07731 8416 ft 287 kts 50°
2026-04-26 09:29 47.68880 16.10216 8291 ft 288 kts 50°
2026-04-26 09:29 47.69968 16.12706 8099 ft 288 kts 50°
2026-04-26 09:30 47.71051 16.15195 7852 ft 286 kts 50°
2026-04-26 09:30 47.72131 16.17674 7603 ft 285 kts 50°
2026-04-26 09:30 47.73214 16.20153 7356 ft 286 kts 50°
2026-04-26 09:30 47.74291 16.22622 7111 ft 285 kts 50°
2026-04-26 09:31 47.75367 16.25088 6870 ft 284 kts 50°
2026-04-26 09:31 47.76435 16.27556 6629 ft 283 kts 51°
2026-04-26 09:31 47.77491 16.30016 6380 ft 281 kts 50°
2026-04-26 09:31 47.78538 16.32464 6152 ft 281 kts 51°
2026-04-26 09:32 47.79583 16.34912 5948 ft 279 kts 51°
2026-04-26 09:32 47.80618 16.37337 5741 ft 276 kts 51°
2026-04-26 09:32 47.81295 16.38920 5601 ft 273 kts 51°
2026-04-26 09:32 47.82547 16.41846 5349 ft 265 kts 51°
2026-04-26 09:33 47.83201 16.43374 5218 ft 262 kts 51°
2026-04-26 09:33 47.84156 16.45612 5003 ft 250 kts 51°
2026-04-26 09:33 47.85060 16.47741 4795 ft 236 kts 51°
2026-04-26 09:33 47.85906 16.49744 4591 ft 221 kts 51°
2026-04-26 09:34 47.86716 16.51650 4387 ft 215 kts 50°
2026-04-26 09:34 47.87497 16.53490 4175 ft 200 kts 50°
2026-04-26 09:34 47.88211 16.55168 3987 ft 189 kts 50°
2026-04-26 09:34 47.88907 16.56810 3856 ft 182 kts 50°
2026-04-26 09:35 47.89573 16.58374 3681 ft 177 kts 49°
2026-04-26 09:35 47.90226 16.59898 3540 ft 177 kts 50°
2026-04-26 09:35 47.90891 16.61456 3382 ft 174 kts 51°
2026-04-26 09:35 47.91531 16.62963 3229 ft 170 kts 51°
2026-04-26 09:36 47.92297 16.64252 3112 ft 163 kts 28°
2026-04-26 09:36 47.93302 16.65002 3035 ft 159 kts 10°
2026-04-26 09:36 47.94375 16.65154 3027 ft 154 kts 352°
2026-04-26 09:36 47.95413 16.64801 3031 ft 154 kts 343°
2026-04-26 09:37 47.96463 16.64359 3027 ft 156 kts 343°
2026-04-26 09:37 47.97500 16.63922 2936 ft 151 kts 343°
2026-04-26 09:37 47.98440 16.63527 2803 ft 138 kts 343°
2026-04-26 09:37 47.99351 16.63143 2604 ft 132 kts 343°
2026-04-26 09:38 48.00231 16.62773 2418 ft 130 kts 343°
2026-04-26 09:38 48.01097 16.62409 2257 ft 131 kts 343°
2026-04-26 09:38 48.01974 16.62040 2075 ft 131 kts 342°
2026-04-26 09:38 48.02842 16.61675 1906 ft 130 kts 342°
2026-04-26 09:39 48.03719 16.61309 1727 ft 130 kts 344°
2026-04-26 09:39 48.04582 16.60944 1476 ft 129 kts 344°
2026-04-26 09:39 48.05434 16.60576 1346 ft 128 kts 345°
2026-04-26 09:39 48.06306 16.60204 1190 ft 128 kts 347°
2026-04-26 09:40 48.07166 16.59861 993 ft 128 kts 344°
2026-04-26 09:40 48.08019 16.59485 833 ft 129 kts 345°
2026-04-26 09:40 48.08880 16.59123 661 ft 128 kts 346°
2026-04-26 09:40 48.09638 16.58807 619 ft 93 kts 344°
2026-04-26 09:41 48.10108 16.58609 621 ft 56 kts 342°
2026-04-26 09:41 48.10448 16.58464 612 ft 43 kts 345°
2026-04-26 09:41 48.10656 16.58354 614 ft 26 kts 332°
2026-04-26 09:41 48.10780 16.58205 611 ft 19 kts 314°
2026-04-26 09:42 48.10876 16.58060 617 ft 20 kts 315°
2026-04-26 09:42 48.10897 16.58026 611 ft 2 kts 314°
2026-04-26 09:42 48.10915 16.57999 616 ft 5 kts 314°
2026-04-26 09:42 48.10958 16.57930 611 ft 15 kts 313°
2026-04-26 09:43 48.11039 16.57802 616 ft 10 kts 315°
2026-04-26 09:43 48.11115 16.57760 622 ft 14 kts 335°
2026-04-26 09:43 48.11184 16.57631 618 ft 19 kts 296°
2026-04-26 09:43 48.11246 16.57444 620 ft 21 kts 296°
2026-04-26 09:44 48.11314 16.57235 614 ft 23 kts 295°
2026-04-26 09:44 48.11388 16.57005 623 ft 25 kts 295°
2026-04-26 09:44 48.11464 16.56776 618 ft 24 kts 297°
2026-04-26 09:44 48.11539 16.56546 619 ft 26 kts 295°
2026-04-26 09:45 48.11618 16.56302 622 ft 23 kts 295°
2026-04-26 09:45 48.11689 16.56085 619 ft 19 kts 296°
2026-04-26 09:45 48.11751 16.55895 616 ft 21 kts 295°
2026-04-26 09:45 48.11820 16.55686 613 ft 23 kts 295°
2026-04-26 09:46 48.11877 16.55500 619 ft 20 kts 288°
2026-04-26 09:46 48.11940 16.55460 611 ft 10 kts 15°
2026-04-26 09:46 48.11994 16.55509 615 ft 7 kts 81°
2026-04-26 09:46 48.11987 16.55572 618 ft 6 kts 101°
2026-04-26 09:47 48.11985 16.55585 611 ft 0 kts 101°